INMARSAT 5-F2

Last updated on Wed Sep 09 2026 00:03:00 GMT+0000 (Coordinated Universal Time)

1 40384U 15005A 26251.36291947 -.00000306 00000+0 00000+0 0 9995 2 40384 0.0163 140.2490 0001353 49.5142 233.2892 1.00280786 41824
UTC large
Height (km)
Speed (km/s)
/
Latitude / Longitude
Inclination (degrees)
Orbital Period (minutes)
Azimuth
Elevation
Range (km)
Doppler Factor

Next 0 passes for location: London (51.5072 / 0.1276)

No passes found over London.
INMARSAT 5-F2